[[{"header":{"parameterUnit":"m.s-1","parameterCategory":1,"la1":30.2991,"la2":30.254,"lo1":-89.0895,"lo2":-89.0444,"dy":0.0017,"dx":0.0017,"nx":28,"ny":28,"refTime":"2024-04-08T03:00:00:Z","depth":0,"parameterNumber":2,"parameterNumberName":"U-component_of_WINDS"},"data":[0,0,0,0,0,0,0,0,0,0,0,0,0,0,0,0,0,0,0,0,0,0,0,0,0,0,0,0,0,0,0,0,0,0,0,0,0,0,0,0,0,0,0,0,0,0,0,0,0,0,0,0,0,0,0,0,0,0,-2.5788,-2.579,0,-2.5941,-2.5943,-2.5945,-2.601,-2.601,-2.6009,-2.6009,-2.6167,-2.6171,-2.6176,0,0,0,0,0,0,0,0,0,0,0,0,0,-2.5553,-2.5557,-2.5788,-2.579,-2.5792,-2.5941,-2.5943,-2.5945,-2.601,-2.601,-2.6009,-2.6009,-2.6165,-2.6171,-2.6176,0,0,0,0,0,0,0,0,0,0,0,0,0,-2.5676,-2.5558,-2.5788,-2.5842,-2.5848,-2.5941,-2.5943,-2.5946,-2.601,-2.601,-2.6009,-2.6009,-2.6164,-2.617,-2.6177,-2.6227,0,0,-2.6197,-2.62,0,0,0,0,0,0,0,0,-2.5669,-2.5684,-2.5832,-2.5838,-2.5846,-2.5956,-2.5918,-2.604,-2.601,-2.5949,-2.6009,-2.6009,-2.6097,-2.6109,-2.6139,-2.6234,-2.6241,-2.6198,-2.6202,-2.6205,-2.6207,0,0,0,0,0,0,0,-2.566,-2.5678,-2.5849,-2.5834,-2.5843,-2.5859,-2.5876,-2.5942,-2.6023,-2.5954,-2.5959,-2.5976,-2.6101,-2.6132,-2.6143,-2.6243,-2.6198,-2.6204,-2.6208,-2.621,-2.6388,-2.6389,0,0,0,0,0,0,-2.5642,-2.567,-2.5844,-2.5853,-2.5754,-2.5864,-2.5883,-2.5921,-2.6023,-2.6038,-2.5976,-2.5979,-2.6121,-2.6135,-2.6149,-2.6215,-2.6205,-2.6211,-2.6215,-2.6388,-2.6389,-2.6389,0,0,0,0,0,0,-2.5637,-2.5657,-2.5838,-2.5763,-2.5788,-2.5868,-2.5911,-2.5924,-2.5956,-2.604,-2.6055,-2.5994,-2.6121,-2.614,-2.6207,-2.6221,-2.6214,-2.622,-2.6387,-2.6388,-2.6389,-2.6346,0,0,0,0,0,0,-2.563,-2.5655,-2.5674,-2.5763,-2.5791,-2.5892,-2.5912,-2.5928,-2.5967,-2.5972,-2.606,-2.6074,-2.6122,-2.6197,-2.6214,-2.623,-2.6225,-2.6386,-2.6387,-2.6389,-2.6347,-2.6346,-2.6345,0,0,0,0,0,-2.5621,-2.5656,-2.5675,-2.5695,-2.5817,-2.5893,-2.5909,-2.5964,-2.5968,-2.5989,-2.6043,-2.6071,-2.6217,-2.6203,-2.6223,-2.6242,-2.6385,-2.6387,-2.6389,-2.6347,-2.6346,-2.6345,0,0,0,0,0,0,-2.5566,-2.5668,-2.569,-2.5755,-2.5815,-2.5904,-2.5931,-2.5961,-2.6021,-2.6022,-2.6088,-2.6107,-2.6169,-2.6213,-2.6195,-2.6296,-2.6304,-2.6309,-2.6265,-2.6265,-2.6264,-2.6252,-2.6231,0,0,0,0,0,-2.5562,-2.5614,-2.5701,-2.575,-2.5779,-2.5849,-2.5885,-2.5922,-2.5987,-2.6012,-2.6071,-2.6134,-2.6194,-2.6232,-2.6292,-2.6353,-2.6374,-2.6376,-2.6375,-2.6374,-2.6378,-2.6415,-2.6417,-2.6395,-2.6395,-2.6395,0,0,-2.5553,-2.5615,-2.5644,-2.574,-2.5791,-2.5845,-2.587,-2.5926,-2.5967,-2.6021,-2.6088,-2.6134,-2.6208,-2.6273,-2.6305,-2.6311,-2.6389,-2.6376,-2.6374,-2.6379,-2.6417,-2.6419,-2.642,-2.6396,-2.6395,-2.6395,0,0,-2.5564,-2.5616,-2.5662,-2.5713,-2.5789,-2.5836,-2.5847,-2.5933,-2.5965,-2.6034,-2.6076,-2.6126,-2.6227,-2.6279,-2.6318,-2.6349,-2.6378,-2.6367,-2.6362,-2.6397,-2.6399,-2.6401,-2.6412,-2.6416,-2.6371,-2.6371,-2.6371,0,-2.5543,-2.5625,-2.5682,-2.5736,-2.5777,-2.5829,-2.5877,-2.5923,-2.6015,-2.6043,-2.6049,-2.6178,-2.6231,-2.631,-2.6317,-2.6347,-2.6363,-2.6357,-2.6394,-2.6396,-2.6399,-2.6411,-2.6415,-2.6369,-2.6369,-2.6369,-2.637,0,-2.5596,-2.5652,-2.568,-2.5768,-2.5813,-2.5863,-2.5929,-2.5967,-2.6001,-2.6047,-2.6117,-2.6184,-2.6258,-2.628,-2.6313,-2.6363,-2.6364,-2.6381,-2.639,-2.6398,-2.641,-2.6415,-2.6366,-2.6367,-2.6368,-2.6368,0,0,-2.5576,-2.5695,-2.5704,-2.5745,-2.5834,-2.5879,-2.5932,-2.6005,-2.6037,-2.6099,-2.6146,-2.6231,-2.6248,-2.6292,-2.6332,-2.6363,-2.6384,-2.6376,-2.6379,-2.6375,-2.6444,-2.6431,-2.6435,-2.6404,-2.6405,-2.6406,-2.6438,0,-2.5599,-2.5695,-2.5749,-2.5824,-2.5877,-2.5927,-2.5974,-2.6034,-2.6079,-2.6132,-2.6183,-2.6242,-2.6259,-2.6287,-2.6319,-2.6374,-2.6399,-2.6373,-2.6449,-2.6451,-2.6428,-2.6442,-2.6428,-2.6454,-2.6443,-2.6444,-2.6445,0,-2.5638,-2.5699,-2.5779,-2.5862,-2.5887,-2.5927,-2.5999,-2.6048,-2.6118,-2.6149,-2.6199,-2.6239,-2.6298,-2.6303,-2.6386,-2.6367,-2.6401,-2.6433,-2.6435,-2.6444,-2.6448,-2.6451,-2.6464,-2.6468,-2.6453,-2.6452,-2.6452,0,-2.5616,-2.5718,-2.5779,-2.5812,-2.5911,-2.5939,-2.5981,-2.605,-2.6091,-2.6154,-2.6181,-2.625,-2.6287,-2.634,-2.6398,-2.6396,-2.6475,-2.6484,-2.6503,-2.6502,-2.6517,-2.6515,-2.6536,-2.6539,-2.6539,-2.6539,-2.6539,0,-2.5636,-2.5683,-2.577,-2.5808,-2.5862,-2.5924,-2.5977,-2.6024,-2.6085,-2.6133,-2.6181,-2.6225,-2.6299,-2.6353,-2.6398,-2.646,-2.6477,-2.6504,-2.6516,-2.65,-2.6496,-2.6523,-2.6523,-2.654,-2.654,-2.654,-2.654,0,-2.5619,-2.568,-2.575,-2.5838,-2.5861,-2.5897,-2.5973,-2.6012,-2.606,-2.6121,-2.6139,-2.6215,-2.6281,-2.6343,-2.6432,-2.6463,-2.6525,-2.654,-2.6501,-2.6507,-2.6522,-2.652,-2.6561,-2.657,-2.6566,-2.6566,-2.6566,0,-2.5628,-2.5665,-2.5757,-2.5792,-2.5834,-2.589,-2.5932,-2.5995,-2.6036,-2.6119,-2.6148,-2.6218,-2.6276,-2.638,-2.6443,-2.6511,-2.6529,-2.6538,-2.6539,-2.6522,-2.6529,-2.6526,-2.653,-2.6537,-2.6536,-2.6536,-2.6536,0,-2.5637,-2.5665,-2.5723,-2.5791,-2.5839,-2.5897,-2.5955,-2.5982,-2.6056,-2.6101,-2.6168,-2.6214,-2.6304,-2.6373,-2.6449,-2.6494,-2.6528,-2.6535,-2.6543,-2.6527,-2.6503,-2.6517,-2.6497,-2.6534,-2.6534,-2.6534,-2.6534,-2.6534,-2.5634,-2.567,-2.574,-2.5803,-2.5853,-2.5907,-2.5948,-2.6002,-2.6059,-2.6137,-2.6171,-2.624,-2.631,-2.6415,-2.6459,-2.6515,-2.6523,-2.6534,-2.6537,-2.6539,-2.6535,-2.6494,-2.6529,-2.6529,-2.6529,-2.6529,-2.6529,0,-2.5646,-2.5694,-2.5751,-2.5831,-2.5881,-2.5908,-2.5975,-2.6015,-2.6074,-2.6136,-2.6193,-2.6271,-2.6339,-2.6408,-2.6479,-2.651,-2.6527,-2.6527,-2.6525,-2.6535,-2.6524,-2.651,-2.6511,-2.6511,-2.6511,-2.6511,-2.6511,-2.6511,-2.5658,-2.572,-2.5756,-2.5844,-2.5892,-2.5959,-2.5995,-2.6045,-2.6095,-2.618,-2.6236,-2.628,-2.6346,-2.6422,-2.6485,-2.6504,-2.6528,-2.6523,-2.6546,-2.6534,-2.6535,-2.6536,-2.6524,-2.6528,-2.6528,-2.6552,-2.6552,-2.6553]},{"header":{"parameterUnit":"m.s-1","parameterCategory":1,"la1":30.2991,"la2":30.254,"lo1":-89.0895,"lo2":-89.0444,"dy":0.0017,"dx":0.0017,"nx":28,"ny":28,"refTime":"2024-04-08T03:00:00:Z","depth":0,"parameterNumber":3,"parameterNumberName":"V-component_of_WINDS"},"data":[0,0,0,0,0,0,0,0,0,0,0,0,0,0,0,0,0,0,0,0,0,0,0,0,0,0,0,0,0,0,0,0,0,0,0,0,0,0,0,0,0,0,0,0,0,0,0,0,0,0,0,0,0,0,0,0,0,0,3.8957,3.8957,0,3.8894,3.8894,3.8893,3.8845,3.8845,3.8845,3.8844,3.8781,3.878,3.8779,0,0,0,0,0,0,0,0,0,0,0,0,0,3.9038,3.9037,3.8957,3.8956,3.8956,3.8895,3.8894,3.8893,3.8846,3.8845,3.8844,3.8844,3.8782,3.878,3.8779,0,0,0,0,0,0,0,0,0,0,0,0,0,3.8992,3.9037,3.8957,3.8925,3.8921,3.8895,3.8894,3.8893,3.8846,3.8845,3.8844,3.8844,3.8782,3.878,3.8779,3.878,0,0,3.8773,3.8772,0,0,0,0,0,0,0,0,3.8995,3.8989,3.893,3.8927,3.8923,3.8877,3.8899,3.8855,3.8846,3.8874,3.8844,3.8843,3.8814,3.8809,3.8799,3.8777,3.8774,3.8773,3.8771,3.8771,3.877,0,0,0,0,0,0,0,3.8998,3.8992,3.8932,3.8929,3.8925,3.8914,3.8907,3.8891,3.8849,3.8872,3.8868,3.8861,3.8812,3.8801,3.8797,3.8774,3.8773,3.8771,3.877,3.8769,3.8751,3.8752,0,0,0,0,0,0,3.9006,3.8995,3.8934,3.8931,3.8958,3.8913,3.8905,3.8892,3.8849,3.8841,3.8862,3.8859,3.8804,3.8799,3.8795,3.8794,3.8771,3.8769,3.8768,3.8751,3.8752,3.8752,0,0,0,0,0,0,3.9008,3.9001,3.8937,3.8962,3.8953,3.8912,3.8899,3.8892,3.8881,3.8841,3.8834,3.8859,3.8804,3.8797,3.8784,3.8791,3.8768,3.8766,3.875,3.8751,3.8752,3.8793,0,0,0,0,0,0,3.9011,3.9002,3.9002,3.8962,3.8952,3.8927,3.8899,3.8891,3.8877,3.8873,3.8836,3.8829,3.8803,3.8787,3.8782,3.8788,3.8765,3.8749,3.875,3.8752,3.8791,3.8796,3.8799,0,0,0,0,0,3.9014,3.9016,3.9002,3.8995,3.895,3.8927,3.8921,3.8891,3.8878,3.8878,3.8853,3.883,3.8792,3.8786,3.878,3.8786,3.8749,3.875,3.8752,3.8789,3.8795,3.8799,0,0,0,0,0,0,3.9058,3.901,3.8994,3.8983,3.896,3.8919,3.8918,3.8897,3.8877,3.8874,3.8837,3.8829,3.882,3.8802,3.8797,3.8786,3.8767,3.8768,3.8798,3.8803,3.8807,3.8811,3.8763,0,0,0,0,0,3.9066,3.9051,3.9011,3.9005,3.8994,3.8958,3.8947,3.8926,3.89,3.889,3.8864,3.884,3.8823,3.8812,3.8794,3.8789,3.878,3.879,3.8794,3.8798,3.8798,3.8795,3.8799,3.8757,3.8757,3.8757,0,0,3.9084,3.9056,3.9048,3.9013,3.8992,3.8979,3.895,3.8936,3.8926,3.8888,3.8874,3.8854,3.8826,3.8817,3.8812,3.8801,3.8808,3.8799,3.8803,3.8801,3.8797,3.8801,3.8805,3.8758,3.8758,3.8758,0,0,3.9108,3.9085,3.9078,3.9058,3.9027,3.9003,3.9002,3.8965,3.895,3.8935,3.8907,3.8895,3.8865,3.8846,3.8833,3.8852,3.8831,3.8848,3.8869,3.8867,3.887,3.8873,3.888,3.8883,3.8848,3.8849,3.8849,0,3.9133,3.911,3.9077,3.9065,3.9051,3.9016,3.901,3.8992,3.8957,3.8949,3.8938,3.8901,3.8879,3.8866,3.8871,3.8861,3.8859,3.8851,3.8872,3.8874,3.8877,3.8883,3.8886,3.8851,3.885,3.885,3.885,0,3.9144,3.9128,3.9127,3.9093,3.9079,3.907,3.9037,3.9027,3.9007,3.8985,3.8971,3.8944,3.8921,3.8916,3.8897,3.8901,3.8895,3.8879,3.8859,3.8883,3.8889,3.8891,3.8854,3.8853,3.8852,3.8852,0,0,3.9193,3.9142,3.9142,3.9127,3.9091,3.9079,3.9069,3.9045,3.9038,3.9015,3.9006,3.8983,3.8968,3.8953,3.8931,3.8929,3.8947,3.8913,3.8912,3.8921,3.8951,3.8964,3.8967,3.8934,3.8934,3.8934,3.8954,0,3.9212,3.9191,3.9161,3.9151,3.9137,3.9104,3.9096,3.9073,3.9053,3.9039,3.9017,3.9001,3.8982,3.8973,3.8969,3.8946,3.8953,3.8944,3.8926,3.8926,3.8934,3.897,3.8983,3.9002,3.8956,3.8956,3.8956,0,3.923,3.9209,3.9197,3.9163,3.9156,3.9149,3.9125,3.9112,3.9087,3.9072,3.9056,3.9033,3.9022,3.9005,3.899,3.8985,3.8976,3.8964,3.8964,3.896,3.8942,3.8968,3.9007,3.901,3.8959,3.8959,3.8959,0,3.9268,3.9237,3.9225,3.9214,3.9173,3.9169,3.9152,3.9126,3.9114,3.9094,3.9086,3.9066,3.9055,3.904,3.9012,3.9002,3.9001,3.8981,3.8989,3.899,3.899,3.899,3.9029,3.8985,3.8985,3.8985,3.8985,0,3.9292,3.9286,3.9242,3.9235,3.9228,3.9195,3.9189,3.9169,3.9146,3.9136,3.9107,3.9098,3.9063,3.905,3.9029,3.902,3.9015,3.9004,3.8998,3.9006,3.9008,3.9,3.8998,3.8985,3.8985,3.8985,3.8985,0,3.9333,3.9303,3.9289,3.9252,3.9242,3.9239,3.9207,3.92,3.9179,3.9166,3.9161,3.9128,3.9111,3.9083,3.9058,3.9044,3.904,3.903,3.9048,3.9045,3.9055,3.9054,3.9089,3.9092,3.9047,3.9047,3.9047,0,3.935,3.9344,3.9307,3.9297,3.9281,3.9267,3.9254,3.9222,3.9211,3.9182,3.9179,3.916,3.9144,3.912,3.9094,3.9076,3.9065,3.9079,3.9062,3.9071,3.9066,3.9066,3.9066,3.9082,3.9083,3.9084,3.9084,0,3.9384,3.937,3.9352,3.933,3.9316,3.9298,3.9278,3.9272,3.9236,3.9225,3.9207,3.9194,3.917,3.9152,3.913,3.9114,3.9094,3.909,3.909,3.9099,3.9109,3.9104,3.9059,3.9089,3.9088,3.9088,3.9088,3.9088,3.9414,3.9407,3.938,3.9362,3.9344,3.9326,3.9317,3.9295,3.9279,3.9256,3.9238,3.9223,3.9199,3.9167,3.9153,3.9141,3.9131,3.9133,3.9133,3.9134,3.9137,3.9112,3.9137,3.9137,3.9137,3.9136,3.9136,0,3.9447,3.9427,3.9411,3.9384,3.937,3.9351,3.9328,3.9318,3.9305,3.9283,3.9268,3.9249,3.9232,3.9205,3.9186,3.9182,3.9172,3.9178,3.9178,3.9175,3.9147,3.9148,3.9187,3.9187,3.9187,3.9186,3.9186,3.9186,3.9462,3.9451,3.9433,3.9413,3.9394,3.9378,3.9366,3.935,3.9333,3.9313,3.9298,3.9281,3.9258,3.9237,3.9221,3.9214,3.9209,3.9218,3.9208,3.9182,3.9177,3.9172,3.9173,3.9217,3.9217,3.9237,3.9237,3.9238]}]]